Weather History for LEBZ - September, 2013

Change the Weather History Date:

Thursday, September 19, 2013

  Actual Average Record
Temperature  
Mean Temperature 75 °F -  
Max Temperature 91 °F - - ()
Min Temperature 59 °F - - ()
Cooling Degree Days 10    
Growing Degree Days 25 (Base 50)    
Moisture  
Dew Point 53 °F    
Average Humidity 50    
Maximum Humidity 88    
Minimum Humidity 22    
Precipitation  
Precipitation 0.00 in 0.06 in - ()
Sea Level Pressure  
Sea Level Pressure 29.99 in    
Wind  
Wind Speed 4 mph ()    
Max Wind Speed 8 mph    
Max Gust Speed -    
Visibility 11.3 miles    
Events      
T = Trace of Precipitation, MM = Missing Value Source: Averaged Metar Reports

Daily Weather History Graph

Daily Weather History Graph

Search for Another Location

Airport or City:

Trip Planner

Search our weather history database for the weather conditions in past years. The results will help you decide how hot, cold, wet, or windy it might be!

Date:

Astronomy

Sep. 19, 2013 Rise Set
Actual Time 8:12 AM CEST 8:29 PM CEST
Civil Twilight 7:45 AM CEST 8:55 PM CEST
Nautical Twilight 7:14 AM CEST 9:26 PM CEST
Astronomical Twilight 6:42 AM CEST 9:58 PM CEST
Moon 8:19 PM CEST (9/19) 8:05 AM CEST (9/19)
Length of Visible Light 13h 10m
Length of Day
12h 16m
Full, 100% of the Moon is Illuminated
Sep 19
Full
Sep 19
Full
Sep 27
Last Quarter
Oct 5
New
Oct 12
First Quarter

Hourly Weather History & Observations

Time (CEST) Temp. Dew Point Humidity Pressure Visibility Wind Dir Wind Speed Gust Speed Precip Events Conditions
6:00 AM 60.8 °F 55.4 °F 82% 29.98 in - West 5.8 mph - N/A   Clear
7:00 AM 59.0 °F 55.4 °F 88% 30.01 in - WNW 8.1 mph - N/A   Clear
8:00 AM 59 °F 56 °F 88% 30.02 in 9 mi West 4.6 mph - -  
8:00 AM 59.0 °F 55.4 °F 88% 30.01 in - West 3.5 mph - N/A   Clear
9:00 AM 59.0 °F 55.4 °F 88% 30.04 in - Calm Calm - N/A   Clear
10:00 AM 64.4 °F 57.2 °F 77% 30.04 in - West 3.5 mph - N/A   Clear
11:00 AM 69.8 °F 59.0 °F 68% 30.04 in - WNW 3.5 mph - N/A   Clear
12:00 PM 73.4 °F 57.2 °F 57% 30.04 in - WSW 4.6 mph - N/A   Clear
1:00 PM 77.0 °F 53.6 °F 44% 30.04 in - West 4.6 mph - N/A   Clear
2:00 PM 83 °F 57 °F 31% 30.00 in 9 mi WSW 4.6 mph - -   Clear
2:00 PM 82.4 °F 51.8 °F 35% 30.01 in - WNW 3.5 mph - N/A   Clear
3:00 PM 84.2 °F 50.0 °F 30% 30.01 in - WNW 2.3 mph - N/A   Clear
4:00 PM 87.8 °F 48.2 °F 25% 29.98 in - WNW 4.6 mph - N/A   Clear
5:00 PM 87.8 °F 46.4 °F 24% 29.95 in - NW 4.6 mph - N/A   Clear
6:00 PM 89.6 °F 46.4 °F 22% 29.95 in - WNW 3.5 mph - N/A   Clear
7:00 PM 89.6 °F 48.2 °F 24% 29.95 in - SSW 1.2 mph - N/A   Clear
8:00 PM 85 °F 54 °F 24% 29.92 in 16 mi South 3.5 mph - -   Clear
8:00 PM 87.8 °F 46.4 °F 24% 29.95 in - SSW 1.2 mph - N/A   Clear
9:00 PM 80.6 °F 46.4 °F 30% 29.95 in - South 2.3 mph - N/A   Clear